CT1OY Oeiras PT current weather conditions

sailwx.info

Wind from 290

Air temperature 19.4° C
Dewpoint 13.4° C

Last reported at 2016-Sep-30 02:25 UTC.
Time now 2016-Sep-30 03:20 UTC

Location: N 38°44' W 009°17'.
View on Google Maps.

See reports from other nearby stations

  
Tides and Currents Weather Stations Pressure Air Temp Water Temp Dewpoint Dewpoint Depression Visibility Wind Speed Wind Dir Waves Ship Positions
date/time (UTC)wind fromknots sea level pressurealtimeterstation pressurevisibilityair tempwater tempwave heightnotes
2016-Sep-30 02:25 290 19.4
2016-Sep-30 02:15 304 19.4
2016-Sep-30 01:55 288 19.4
2016-Sep-30 01:45 269 19.4
2016-Sep-30 01:25 342 19.4
2016-Sep-30 00:55 316 19.4
2016-Sep-30 00:45 298 19.4
2016-Sep-29 23:15 294 20.0
2016-Sep-29 22:55 305 20.6
2016-Sep-29 22:45 267 20.6
2016-Sep-29 22:35 307 0 20.6
2016-Sep-29 22:15 306 2 20.6
2016-Sep-29 21:55 298 20.6
2016-Sep-29 21:35 259 20.6
2016-Sep-29 20:55 315 2 20.6
2016-Sep-29 20:35 295 21.1
2016-Sep-29 20:25 309 0 21.1
2016-Sep-29 20:15 288 21.1
2016-Sep-29 20:05 305 6 gusting 13 21.1
2016-Sep-29 19:45 351 1 21.1
2016-Sep-29 19:25 262 21.1
2016-Sep-29 19:05 260 21.1
2016-Sep-29 18:55 020 6 gusting 10 21.1
2016-Sep-29 18:45 307 0 gusting 13 21.7
2016-Sep-29 18:25 247 1 gusting 11 21.7
2016-Sep-29 18:15 276 0 gusting 13 21.7
2016-Sep-29 18:05 310 0 gusting 12 22.2
2016-Sep-29 17:55 037 2 gusting 12 22.2
2016-Sep-29 17:45 287 0 gusting 10 22.8
2016-Sep-29 17:35 256 1 gusting 13 23.3
2016-Sep-29 17:25 271 23.3
2016-Sep-29 16:55 352 3 gusting 11 23.9
2016-Sep-29 16:35 285 10 gusting 11 25.0
2016-Sep-29 16:25 260 1 25.6
2016-Sep-29 16:15 326 1 gusting 10 25.6
2016-Sep-29 15:45 301 1 27.2
2016-Sep-29 15:25 003 1 27.2
2016-Sep-29 15:05 274 28.3
2016-Sep-29 14:45 278 28.3
2016-Sep-29 14:25 304 30.0
2016-Sep-29 14:15 103 30.0
2016-Sep-29 14:05 304 29.4
2016-Sep-29 13:55 016 29.4
2016-Sep-29 13:45 085 1 29.4
2016-Sep-29 13:35 295 30.0
2016-Sep-29 13:15 359 28.9
2016-Sep-29 12:55 328 28.3
2016-Sep-29 12:45 066 1 28.3
2016-Sep-29 12:35 063 28.3
2016-Sep-29 12:25 318 27.8
2016-Sep-29 11:55 309 27.8
2016-Sep-29 11:25 051 26.7
2016-Sep-29 11:15 048 26.1
2016-Sep-29 10:55 048 26.1
2016-Sep-29 10:45 051 25.6
2016-Sep-29 10:35 029 25.0
2016-Sep-29 10:25 034 25.0
2016-Sep-29 09:35 029 0 22.8
2016-Sep-29 09:15 288 21.7
2016-Sep-29 09:05 277 21.7
2016-Sep-29 08:25 062 20.0
2016-Sep-29 07:55 044 20.0
2016-Sep-29 07:35 064 19.4
2016-Sep-29 06:55 034 18.9
2016-Sep-29 06:45 027 18.3
2016-Sep-29 06:35 037 18.9
2016-Sep-29 05:45 089 19.4
2016-Sep-29 05:15 094 19.4
2016-Sep-29 05:05 094 19.4
2016-Sep-29 04:55 094 19.4
2016-Sep-29 04:35 094 20.0
2016-Sep-29 04:15 093 20.0
2016-Sep-29 03:55 093 20.6
2016-Sep-29 03:25 077 21.1
2016-Sep-29 03:15 037 21.7
2016-Sep-29 03:05 083 21.7
2016-Sep-29 02:45 060 22.2
2016-Sep-29 02:25 105 23.3
2016-Sep-29 02:05 073 23.3
2016-Sep-29 01:55 049 23.9
2016-Sep-29 01:45 041 0 23.9
2016-Sep-29 01:35 023 23.9
2016-Sep-29 01:25 056 23.9
2016-Sep-29 01:05 059 24.4
2016-Sep-29 00:35 039 0 25.0
2016-Sep-28 23:55 044 25.6
2016-Sep-28 23:35 070 25.6
2016-Sep-28 23:25 041 25.6
2016-Sep-28 22:55 075 26.1
2016-Sep-28 22:45 078 26.7
2016-Sep-28 22:35 091 26.7
2016-Sep-28 22:25 050 26.7
2016-Sep-28 22:15 083 26.7
2016-Sep-28 22:05 059 26.7
2016-Sep-28 21:45 045 26.7
2016-Sep-28 21:35 020 27.2
2016-Sep-28 21:15 028 27.2
2016-Sep-28 20:55 309 27.2
2016-Sep-28 20:35 050 27.8
2016-Sep-28 20:25 034 27.8
2016-Sep-28 19:25 335 27.8
2016-Sep-28 18:35 309 28.9
2016-Sep-28 18:25 001 29.4
2016-Sep-28 18:05 058 31.1
2016-Sep-28 17:45 034 31.7
2016-Sep-28 17:35 066 32.2
2016-Sep-28 17:25 057 32.2
2016-Sep-28 17:15 063 32.8
2016-Sep-28 17:05 033 32.8
2016-Sep-28 16:35 076 33.3
2016-Sep-28 15:45 011 33.3
2016-Sep-28 15:35 037 4 33.3
2016-Sep-28 15:25 077 33.3
2016-Sep-28 15:15 033 5 33.3
2016-Sep-28 15:05 104 33.3
2016-Sep-28 14:15 039 2 33.3
2016-Sep-28 14:05 313 0 32.8
2016-Sep-28 13:45 065 32.8
2016-Sep-28 13:25 101 32.2
2016-Sep-28 13:15 004 1 32.2
2016-Sep-28 13:05 016 1 31.7
2016-Sep-28 12:45 053 1 31.1
2016-Sep-28 12:35 113 0 30.6
2016-Sep-28 12:15 190 30.0
2016-Sep-28 12:05 068 3 30.0
2016-Sep-28 11:55 110 30.0
2016-Sep-28 11:25 064 2 28.9
2016-Sep-28 11:15 087 28.3
2016-Sep-28 11:05 110 1 gusting 10 28.3
2016-Sep-28 10:45 079 27.8
2016-Sep-28 10:25 284 6 27.2
2016-Sep-28 10:15 075 27.2
2016-Sep-28 10:05 055 0 gusting 11 26.7
2016-Sep-28 08:35 329 24.4
2016-Sep-28 08:25 063 1 24.4
2016-Sep-28 08:15 069 24.4
2016-Sep-28 08:05 043 23.9
2016-Sep-28 07:35 053 2 23.3
2016-Sep-28 07:15 070 1 gusting 10 23.3
2016-Sep-28 07:05 021 23.3
2016-Sep-28 06:55 029 1 23.3
2016-Sep-28 06:45 046 22.8
2016-Sep-28 06:35 027 22.8
2016-Sep-28 06:25 028 23.3
2016-Sep-28 06:15 049 23.3
2016-Sep-28 06:05 082 23.3
2016-Sep-28 05:55 325 23.3
2016-Sep-28 05:15 034 23.9
2016-Sep-28 05:05 007 23.9
2016-Sep-28 04:55 354 23.9
2016-Sep-28 04:35 006 23.3
2016-Sep-28 04:05 352 22.8
2016-Sep-28 03:55 332 22.8
2016-Sep-28 03:45 036 22.2
2016-Sep-28 03:05 022 21.1